Other Surface Observations
Issued by NWS Charleston, SC

Home | Current Version | Previous Version | Text Only | Print | Product List | Glossary On
Versions: 1 2 3 4 5 6 7 8 9 10 11 12 13 14 15 16 17 18 19 20 21 22 23 24 25 26 27 28 29 30 31 32 33 34 35 36 37 38 39 40 41 42 43 44 45 46 47 48 49 50
000
SXUS52 KCHS 301826
OSOCHS

MARINE OBSERVATIONS
NATIONAL WEATHER SERVICE CHARLESTON SC
200 PM EDT SUN AUG 30 2015

...DOWNTOWN CHARLESTON AND HARBOR...

CITY           SKY/WX    TMP DP  RH WIND       PRES   REMARKS
WATERFRONT PRK   N/A     78  76  94 NE8       30.11R

...LAKE MOULTRIE...

CITY           SKY/WX    TMP DP  RH WIND       PRES   REMARKS
PINOPOLIS      NOT AVBL

...LAKE AND SUPPLEMENTAL COASTAL OBSERVATIONS...

STATION/POSITION TIME  TEMP    WIND        PRES    WAVE   SWELL
                       AIR SEA DIR/SP/G            HT/PER HT/PER/DIR
                 (UTC) (F)     (DEG/KT/KT) (MB)    (FT/S) (FT/S/D)
FORT PULASKI     NOT AVBL
SAPELO ISLAND    1800   74      50/  5     1019.0S
UPR LAKE MARION  NOT AVBL
WINYAH BAY       1745   79     130/  5     1020.0S
LAKE MURRAY      1800   75      50/  2/  5 1020.3S
ACE BASIN NERRS  NOT AVBL


...C-MAN AND BUOY OBSERVATIONS...

STATION/POSITION TIME  TEMP    WIND        PRES    WAVE   SWELL
                       AIR SEA DIR/SP/G            HT/PER HT/PER/DIR
                 (UTC) (F)     (DEG/KT/KT) (MB)    (FT/S) (FT/S/D)
BUOY 41004       1750   78 84   50/  8/ 10 1020.3F   4/11   3/11
BUOY 41008       1750   79 84  110/ 17/ 21 1018.7R   4/11   3/ 90/11
FOLLY BEACH CMAN 1800   75     110/ 16/ 18 1020.3S
CAPERS NS BUOY   NOT AVBL
FRIPP NS BUOY    NOT AVBL
5E ST. MARYS GA  1721      86                N/A     4/11   2/110/11


STATION/POSITION TIME  TEMP    WIND        PRES    WAVE   SWELL
                       AIR SEA DIR/SP/G            HT/PER HT/PER/DIR
                 (UTC) (F)     (DEG/KT/KT) (MB)    (FT/S) (FT/S/D)
FRYING PAN BUOY  1750   81 82   80/ 10/ 12 1021.1S   4/10   3/140/10
BUOY 41025       1750   79 83   20/  6/  8 1020.8F   4/10   3/ 90/10
CAPE LOOKOUT NC  1800   79      60/  3/  4 1020.5S
BUOY 41002       1750   79 84  310/  4/ 10 1021.4F   4/10   5/130/10
BUOY 41010       1720   85 86  140/ 19/ 21 1018.1R
ST AUGUSTINE FL  1800   80 84   80/  7/  9 1017.5F

$$



USA.gov is the U.S. government's official web portal to all federal, state and local government web resources and services.